| time (UTC) | temp F | wind direction | speed MPH | gust MPH | rain 1hr in | rain 24hr in | rain mn in | humidity % | barometer mb |
| 20260506204556 | 50 | 338 | 4.0 | 11.0 | 0.00 | 1.34 | 0.28 | 65 | 1012.2 |
| 20260506204049 | 50 | 10 | 4.0 | 15.0 | 0.00 | 1.34 | 0.28 | 65 | 1012.2 |
| 20260506203549 | 50 | 356 | 4.0 | 15.0 | 0.00 | 1.34 | 0.28 | 65 | 1012.1 |
| 20260506203052 | 51 | 341 | 5.0 | 13.0 | 0.00 | 1.34 | 0.28 | 64 | 1012.1 |
| 20260506202549 | 51 | 27 | 6.0 | 13.0 | 0.01 | 1.34 | 0.28 | 63 | 1011.9 |
| 20260506202052 | 51 | 3 | 5.0 | 10.0 | 0.01 | 1.34 | 0.28 | 63 | 1011.9 |
| 20260506201559 | 51 | 281 | 3.0 | 11.0 | 0.01 | 1.34 | 0.28 | 63 | 1012.0 |
| 20260506201048 | 51 | 4 | 4.0 | 13.0 | 0.01 | 1.34 | 0.28 | 62 | 1012.1 |
| 20260506200547 | 51 | 351 | 7.0 | 13.0 | 0.01 | 1.34 | 0.28 | 60 | 1012.1 |
| 20260506200052 | 51 | 311 | 5.0 | 11.0 | 0.01 | 1.34 | 0.28 | 60 | 1012.0 |
| 20260506195547 | 51 | 333 | 2.0 | 12.0 | 0.01 | 1.39 | 0.28 | 58 | 1012.1 |
| 20260506195049 | 52 | 306 | 6.0 | 14.0 | 0.01 | 1.39 | 0.28 | 58 | 1012.2 |
| 20260506194557 | 52 | 329 | 7.0 | 14.0 | 0.01 | 1.39 | 0.28 | 57 | 1012.1 |
| 20260506194046 | 52 | 319 | 3.0 | 14.0 | 0.01 | 1.39 | 0.28 | 59 | 1012.2 |
| 20260506193547 | 52 | 314 | 2.0 | 11.0 | 0.01 | 1.39 | 0.28 | 56 | 1012.1 |
| 20260506193045 | 52 | 300 | 5.0 | 11.0 | 0.00 | 1.38 | 0.28 | 58 | 1012.0 |
| 20260506192548 | 52 | 310 | 4.0 | 12.0 | 0.00 | 1.38 | 0.28 | 60 | 1012.0 |
| 20260506192044 | 52 | 4 | 5.0 | 13.0 | 0.00 | 1.38 | 0.28 | 62 | 1012.1 |
| 20260506191547 | 52 | 84 | 2.0 | 17.0 | 0.00 | 1.38 | 0.28 | 61 | 1012.2 |
| 20260506191044 | 52 | 356 | 9.0 | 17.0 | 0.00 | 1.38 | 0.28 | 62 | 1012.2 |
| 20260506190542 | 52 | 23 | 5.0 | 15.0 | 0.00 | 1.38 | 0.28 | 61 | 1012.1 |
| 20260506190040 | 53 | 28 | 6.0 | 14.0 | 0.00 | 1.38 | 0.28 | 63 | 1012.0 |
| 20260506185539 | 52 | 4 | 3.0 | 13.0 | 0.00 | 1.38 | 0.28 | 64 | 1012.2 |
| 20260506185042 | 52 | 295 | 4.0 | 13.0 | 0.00 | 1.38 | 0.28 | 66 | 1012.2 |
| 20260506184537 | 52 | 339 | 3.0 | 15.0 | 0.00 | 1.38 | 0.28 | 66 | 1012.1 |
| 20260506184037 | 52 | 356 | 8.0 | 15.0 | 0.00 | 1.38 | 0.28 | 66 | 1012.2 |
| 20260506183536 | 52 | 34 | 5.0 | 17.0 | 0.00 | 1.38 | 0.28 | 66 | 1012.1 |
| 20260506183042 | 51 | 312 | 5.0 | 17.0 | 0.00 | 1.38 | 0.28 | 67 | 1012.3 |
| 20260506182534 | 51 | 8 | 8.0 | 18.0 | 0.00 | 1.38 | 0.28 | 67 | 1012.2 |
| 20260506182037 | 52 | 349 | 7.0 | 20.0 | 0.00 | 1.38 | 0.28 | 67 | 1012.2 |
| 20260506181534 | 52 | 18 | 9.0 | 20.0 | 0.00 | 1.38 | 0.28 | 67 | 1012.2 |
| 20260506181032 | 52 | 25 | 9.0 | 15.0 | 0.00 | 1.38 | 0.28 | 67 | 1012.3 |
| 20260506180534 | 52 | 309 | 8.0 | 15.0 | 0.00 | 1.38 | 0.28 | 69 | 1012.1 |
| 20260506180035 | 51 | 320 | 5.0 | 16.0 | 0.00 | 1.38 | 0.28 | 68 | 1012.3 |
| 20260506175532 | 51 | 301 | 7.0 | 22.0 | 0.00 | 1.38 | 0.28 | 68 | 1012.3 |
| 20260506175029 | 51 | 319 | 10.0 | 22.0 | 0.00 | 1.38 | 0.28 | 68 | 1012.3 |
| 20260506174529 | 51 | 344 | 3.0 | 15.0 | 0.00 | 1.38 | 0.28 | 69 | 1012.1 |
| 20260506174028 | 51 | 304 | 7.0 | 15.0 | 0.00 | 1.38 | 0.28 | 68 | 1012.0 |
| 20260506173528 | 51 | 300 | 4.0 | 15.0 | 0.00 | 1.38 | 0.28 | 67 | 1011.8 |
| 20260506173027 | 51 | 298 | 2.0 | 16.0 | 0.00 | 1.38 | 0.28 | 67 | 1011.8 |
| 20260506172526 | 51 | 325 | 7.0 | 16.0 | 0.00 | 1.38 | 0.28 | 67 | 1012.0 |
| 20260506172029 | 52 | 319 | 7.0 | 14.0 | 0.00 | 1.38 | 0.28 | 67 | 1012.0 |
| 20260506171530 | 52 | 309 | 2.0 | 12.0 | 0.00 | 1.38 | 0.28 | 66 | 1012.2 |
| 20260506171028 | 52 | 305 | 5.0 | 12.0 | 0.00 | 1.38 | 0.28 | 68 | 1012.3 |
| 20260506170525 | 52 | 316 | 4.0 | 14.0 | 0.00 | 1.38 | 0.28 | 68 | 1012.2 |
| 20260506170024 | 52 | 341 | 6.0 | 16.0 | 0.00 | 1.38 | 0.28 | 68 | 1012.1 |
| 20260506165522 | 52 | 313 | 7.0 | 16.0 | 0.00 | 1.38 | 0.28 | 69 | 1011.9 |
| 20260506165021 | 52 | 311 | 8.0 | 18.0 | 0.00 | 1.38 | 0.28 | 69 | 1011.9 |
| 20260506164522 | 52 | 301 | 7.0 | 18.0 | 0.00 | 1.38 | 0.28 | 70 | 1011.7 |
| 20260506164023 | 51 | 359 | 7.0 | 16.0 | 0.00 | 1.38 | 0.28 | 70 | 1011.7 |
| 20260506163520 | 51 | 342 | 7.0 | 18.0 | 0.00 | 1.38 | 0.28 | 71 | 1011.6 |
| 20260506163019 | 51 | 11 | 7.0 | 15.0 | 0.00 | 1.38 | 0.28 | 71 | 1011.6 |
| 20260506162523 | 51 | 305 | 8.0 | 16.0 | 0.00 | 1.38 | 0.28 | 71 | 1011.5 |
| 20260506162021 | 51 | 13 | 8.0 | 20.0 | 0.00 | 1.38 | 0.28 | 70 | 1011.4 |
| 20260506161516 | 51 | 301 | 9.0 | 20.0 | 0.00 | 1.38 | 0.28 | 70 | 1011.5 |
| 20260506161016 | 52 | 15 | 10.0 | 20.0 | 0.00 | 1.38 | 0.28 | 70 | 1011.4 |
| 20260506160517 | 52 | 325 | 4.0 | 12.0 | 0.00 | 1.38 | 0.28 | 72 | 1011.3 |
| 20260506160016 | 52 | 324 | 3.0 | 12.0 | 0.00 | 1.38 | 0.28 | 73 | 1011.3 |
| 20260506155512 | 52 | 309 | 5.0 | 12.0 | 0.00 | 1.38 | 0.28 | 74 | 1011.4 |
| 20260506155011 | 52 | 281 | 3.0 | 17.0 | 0.00 | 1.38 | 0.28 | 76 | 1011.4 |
| 20260506154509 | 51 | 324 | 8.0 | 21.0 | 0.00 | 1.38 | 0.28 | 77 | 1011.3 |
| 20260506154008 | 51 | 341 | 8.0 | 21.0 | 0.00 | 1.38 | 0.28 | 78 | 1011.1 |
| 20260506153506 | 51 | 288 | 8.0 | 19.0 | 0.00 | 1.38 | 0.28 | 80 | 1011.0 |
| 20260506153010 | 50 | 338 | 6.0 | 19.0 | 0.00 | 1.38 | 0.28 | 81 | 1010.7 |
| 20260506152504 | 50 | 314 | 4.0 | 19.0 | 0.00 | 1.38 | 0.28 | 83 | 1010.8 |
| 20260506152002 | 49 | 341 | 7.0 | 19.0 | 0.00 | 1.38 | 0.28 | 84 | 1010.6 |
| 20260506151502 | 49 | 1 | 8.0 | 17.0 | 0.00 | 1.38 | 0.28 | 85 | 1010.4 |
| 20260506151103 | 49 | 329 | 5.0 | 17.0 | 0.00 | 1.38 | 0.28 | 86 | 1010.4 |
| 20260506150558 | 49 | 301 | 5.0 | 17.0 | 0.00 | 1.38 | 0.28 | 86 | 1010.4 |
| 20260506150057 | 48 | 309 | 6.0 | 14.0 | 0.00 | 1.38 | 0.28 | 87 | 1010.3 |
| 20260506145557 | 48 | 309 | 2.0 | 10.0 | 0.00 | 1.38 | 0.28 | 87 | 1010.4 |
| 20260506145059 | 48 | 3 | 4.0 | 10.0 | 0.00 | 1.38 | 0.28 | 88 | 1010.3 |
| 20260506144604 | 48 | 304 | 2.0 | 6.0 | 0.00 | 1.38 | 0.28 | 89 | 1010.2 |
| 20260506144052 | 48 | 329 | 2.0 | 8.0 | 0.00 | 1.38 | 0.28 | 89 | 1010.2 |
| 20260506143552 | 47 | 264 | 2.0 | 8.0 | 0.00 | 1.38 | 0.28 | 89 | 1010.1 |
| 20260506143050 | 47 | 313 | 2.0 | 8.0 | 0.00 | 1.38 | 0.28 | 90 | 1010.1 |
| 20260506142550 | 47 | 264 | 4.0 | 8.0 | 0.00 | 1.38 | 0.28 | 90 | 1010.1 |
| 20260506142052 | 46 | 326 | 1.0 | 5.0 | 0.00 | 1.38 | 0.28 | 90 | 1010.0 |
| 20260506141547 | 46 | 356 | 2.0 | 6.0 | 0.00 | 1.38 | 0.28 | 90 | 1009.8 |
| 20260506141046 | 46 | 356 | 2.0 | 7.0 | 0.00 | 1.38 | 0.28 | 90 | 1009.8 |
| 20260506140549 | 46 | 323 | 2.0 | 11.0 | 0.00 | 1.38 | 0.28 | 90 | 1009.8 |
| 20260506140048 | 45 | 345 | 3.0 | 11.0 | 0.00 | 1.38 | 0.28 | 90 | 1009.9 |
| 20260506135545 | 45 | 301 | 3.0 | 7.0 | 0.00 | 1.38 | 0.28 | 91 | 1010.0 |
| 20260506135045 | 45 | 298 | 2.0 | 7.0 | 0.00 | 1.38 | 0.28 | 90 | 1009.9 |
| 20260506134544 | 45 | 41 | 1.0 | 7.0 | 0.00 | 1.38 | 0.28 | 90 | 1010.0 |
| 20260506134043 | 45 | 318 | 2.0 | 7.0 | 0.00 | 1.38 | 0.28 | 90 | 1009.9 |
| 20260506133541 | 45 | 309 | 3.0 | 7.0 | 0.00 | 1.38 | 0.28 | 91 | 1009.8 |
| 20260506133043 | 45 | 298 | 1.0 | 9.0 | 0.00 | 1.38 | 0.28 | 91 | 1009.8 |
| 20260506132540 | 45 | 318 | 2.0 | 9.0 | 0.00 | 1.38 | 0.28 | 91 | 1009.8 |
| 20260506132042 | 45 | 245 | 2.0 | 6.0 | 0.00 | 1.38 | 0.28 | 91 | 1009.7 |
| 20260506131538 | 45 | 326 | 3.0 | 6.0 | 0.00 | 1.38 | 0.28 | 91 | 1009.7 |
| 20260506131038 | 45 | 314 | 2.0 | 5.0 | 0.00 | 1.38 | 0.28 | 91 | 1009.5 |
| 20260506130536 | 45 | 264 | 2.0 | 5.0 | 0.00 | 1.38 | 0.28 | 91 | 1009.1 |
| 20260506130036 | 45 | 84 | 2.0 | 7.0 | 0.00 | 1.38 | 0.28 | 91 | 1009.1 |
| 20260506125534 | 45 | 290 | 1.0 | 7.0 | 0.00 | 1.38 | 0.28 | 91 | 1009.2 |
| 20260506125033 | 45 | 335 | 2.0 | 6.0 | 0.00 | 1.38 | 0.28 | 91 | 1009.0 |
| 20260506124533 | 45 | 335 | 1.0 | 6.0 | 0.00 | 1.38 | 0.28 | 91 | 1008.7 |
| 20260506124033 | 45 | 303 | 3.0 | 6.0 | 0.00 | 1.38 | 0.28 | 91 | 1008.7 |
| 20260506123533 | 45 | 331 | 1.0 | 6.0 | 0.00 | 1.38 | 0.28 | 91 | 1008.9 |
| 20260506123034 | 45 | 281 | 2.0 | 6.0 | 0.00 | 1.38 | 0.28 | 91 | 1009.0 |
| 20260506122533 | 44 | 322 | 1.0 | 4.0 | 0.00 | 1.38 | 0.28 | 91 | 1008.8 |
| 20260506122031 | 44 | 339 | 1.0 | 5.0 | 0.00 | 1.38 | 0.28 | 91 | 1008.8 |
| 20260506121531 | 44 | 317 | 2.0 | 5.0 | 0.00 | 1.38 | 0.28 | 91 | 1009.0 |
| 20260506121030 | 44 | 41 | 1.0 | 2.0 | 0.00 | 1.38 | 0.28 | 91 | 1009.0 |
| 20260506120529 | 44 | 41 | 0.0 | 3.0 | 0.00 | 1.38 | 0.28 | 91 | 1008.7 |
| 20260506120039 | 44 | 356 | 1.0 | 3.0 | 0.00 | 1.38 | 0.28 | 91 | 1008.6 |
| 20260506115528 | 44 | 316 | 1.0 | 3.0 | 0.00 | 1.38 | 0.28 | 91 | 1008.7 |
| 20260506115026 | 44 | 319 | 1.0 | 3.0 | 0.00 | 1.38 | 0.28 | 91 | 1008.7 |
| 20260506114526 | 44 | 147 | 0.0 | 4.0 | 0.00 | 1.38 | 0.28 | 91 | 1008.6 |
| 20260506114025 | 44 | 41 | 0.0 | 4.0 | 0.00 | 1.38 | 0.28 | 90 | 1008.5 |
| 20260506113524 | 44 | 147 | 0.0 | 2.0 | 0.00 | 1.38 | 0.28 | 90 | 1008.4 |
| 20260506113029 | 44 | 319 | 1.0 | 2.0 | 0.00 | 1.38 | 0.28 | 90 | 1008.3 |
| 20260506112522 | 44 | 342 | 1.0 | 3.0 | 0.00 | 1.38 | 0.28 | 90 | 1008.2 |
| 20260506112022 | 44 | 41 | 1.0 | 3.0 | 0.00 | 1.38 | 0.28 | 90 | 1008.2 |
| 20260506111521 | 44 | 356 | 1.0 | 4.0 | 0.00 | 1.38 | 0.28 | 90 | 1008.2 |
| 20260506111020 | 44 | 326 | 2.0 | 4.0 | 0.00 | 1.38 | 0.28 | 90 | 1007.9 |
| 20260506110519 | 44 | 326 | 1.0 | 5.0 | 0.00 | 1.38 | 0.28 | 90 | 1007.7 |
| 20260506110019 | 44 | 335 | 2.0 | 5.0 | 0.00 | 1.38 | 0.28 | 90 | 1007.9 |
| 20260506105617 | 44 | 319 | 3.0 | 7.0 | 0.00 | 1.38 | 0.28 | 90 | 1007.6 |
| 20260506105018 | 43 | 23 | 3.0 | 7.0 | 0.00 | 1.38 | 0.28 | 90 | 1007.5 |
| 20260506104517 | 43 | 84 | 1.0 | 7.0 | 0.00 | 1.38 | 0.28 | 90 | 1007.4 |
| 20260506104017 | 43 | 20 | 3.0 | 7.0 | 0.00 | 1.38 | 0.28 | 90 | 1007.6 |
| 20260506103518 | 43 | 340 | 3.0 | 9.0 | 0.00 | 1.38 | 0.28 | 90 | 1007.9 |
| 20260506103017 | 43 | 324 | 2.0 | 9.0 | 0.00 | 1.38 | 0.28 | 90 | 1007.7 |
| 20260506102516 | 43 | 329 | 3.0 | 7.0 | 0.01 | 1.38 | 0.28 | 90 | 1007.6 |
| 20260506102016 | 43 | 311 | 4.0 | 8.0 | 0.01 | 1.38 | 0.28 | 90 | 1007.5 |
| 20260506101516 | 43 | 324 | 3.0 | 8.0 | 0.02 | 1.38 | 0.28 | 90 | 1007.1 |
| 20260506101017 | 43 | 344 | 3.0 | 5.0 | 0.02 | 1.38 | 0.28 | 90 | 1006.8 |
| 20260506100514 | 43 | 333 | 2.0 | 4.0 | 0.03 | 1.38 | 0.28 | 90 | 1006.9 |
| 20260506100013 | 43 | 23 | 1.0 | 4.0 | 0.03 | 1.38 | 0.28 | 90 | 1006.5 |
| 20260506095512 | 43 | 23 | 2.0 | 4.0 | 0.03 | 1.38 | 0.28 | 90 | 1006.8 |
| 20260506095011 | 44 | 34 | 1.0 | 6.0 | 0.03 | 1.38 | 0.28 | 90 | 1006.9 |
| 20260506094512 | 44 | 6 | 2.0 | 9.0 | 0.04 | 1.38 | 0.28 | 90 | 1007.2 |
| 20260506094011 | 44 | 337 | 4.0 | 9.0 | 0.04 | 1.38 | 0.28 | 90 | 1007.4 |
| 20260506093510 | 44 | 3 | 4.0 | 11.0 | 0.04 | 1.38 | 0.28 | 90 | 1007.7 |
| 20260506093010 | 44 | 339 | 2.0 | 11.0 | 0.04 | 1.38 | 0.28 | 90 | 1007.8 |
| 20260506092509 | 44 | 328 | 3.0 | 8.0 | 0.04 | 1.37 | 0.27 | 90 | 1007.9 |
| 20260506092009 | 44 | 345 | 4.0 | 8.0 | 0.04 | 1.37 | 0.27 | 90 | 1007.8 |
| 20260506091514 | 44 | 325 | 3.0 | 8.0 | 0.04 | 1.36 | 0.26 | 90 | 1007.7 |
| 20260506091007 | 45 | 333 | 4.0 | 9.0 | 0.05 | 1.36 | 0.26 | 90 | 1007.5 |
| 20260506090505 | 45 | 326 | 4.0 | 13.0 | 0.05 | 1.35 | 0.25 | 90 | 1007.4 |
| 20260506090010 | 45 | 329 | 5.0 | 13.0 | 0.06 | 1.35 | 0.25 | 90 | 1007.2 |
| 20260506085508 | 45 | 315 | 5.0 | 10.0 | 0.06 | 1.35 | 0.25 | 90 | 1007.3 |
| 20260506085003 | 45 | 321 | 2.0 | 7.0 | 0.08 | 1.35 | 0.25 | 90 | 1007.1 |
| 20260506084503 | 45 | 322 | 4.0 | 7.0 | 0.07 | 1.34 | 0.24 | 90 | 1007.0 |
| 20260506084003 | 45 | 15 | 2.0 | 9.0 | 0.07 | 1.34 | 0.24 | 90 | 1006.9 |
| 20260506083503 | 45 | 27 | 4.0 | 9.0 | 0.07 | 1.34 | 0.24 | 90 | 1006.9 |
| 20260506083001 | 45 | 339 | 3.0 | 6.0 | 0.08 | 1.34 | 0.24 | 90 | 1007.0 |
| 20260506082502 | 45 | 34 | 4.0 | 8.0 | 0.08 | 1.33 | 0.23 | 90 | 1007.0 |
| 20260506082001 | 45 | 326 | 4.0 | 8.0 | 0.08 | 1.33 | 0.23 | 90 | 1007.2 |
| 20260506081500 | 45 | 344 | 4.0 | 8.0 | 0.08 | 1.32 | 0.22 | 90 | 1007.3 |
| 20260506081100 | 45 | 8 | 3.0 | 8.0 | 0.08 | 1.31 | 0.21 | 90 | 1007.4 |
| 20260506080600 | 45 | 15 | 3.0 | 6.0 | 0.07 | 1.30 | 0.20 | 90 | 1007.4 |
| 20260506073158 | 45 | 295 | 3.0 | 9.0 | 0.04 | 1.26 | 0.16 | 90 | 1007.1 |
| 20260506072555 | 45 | 356 | 4.0 | 9.0 | 0.03 | 1.25 | 0.15 | 90 | 1007.0 |
| 20260506072055 | 45 | 6 | 4.0 | 9.0 | 0.03 | 1.25 | 0.15 | 90 | 1007.0 |
| 20260506071555 | 45 | 290 | 4.0 | 7.0 | 0.03 | 1.24 | 0.14 | 90 | 1007.0 |
| 20260506071054 | 45 | 349 | 4.0 | 7.0 | 0.02 | 1.23 | 0.13 | 90 | 1006.9 |
| 20260506070553 | 45 | 3 | 2.0 | 6.0 | 0.02 | 1.23 | 0.13 | 90 | 1006.9 |
| 20260506062049 | 45 | 333 | 2.0 | 7.0 | 0.05 | 1.22 | 0.12 | 90 | 1007.2 |
| 20260506061557 | 45 | 348 | 2.0 | 6.0 | 0.04 | 1.21 | 0.11 | 90 | 1007.0 |
| 20260506061047 | 45 | 350 | 3.0 | 6.0 | 0.05 | 1.21 | 0.11 | 90 | 1007.0 |
| 20260506060546 | 45 | 356 | 2.0 | 5.0 | 0.06 | 1.21 | 0.11 | 90 | 1007.1 |
| 20260506051043 | 45 | 84 | 2.0 | 5.0 | 0.05 | 1.15 | 0.06 | 90 | 1007.2 |
| 20260506050538 | 45 | 356 | 2.0 | 4.0 | 0.04 | 1.14 | 0.05 | 90 | 1007.5 |
| 20260506045036 | 45 | 32 | 4.0 | 7.0 | 0.04 | 1.12 | 0.03 | 89 | 1007.5 |
| 20260506044544 | 46 | 356 | 4.0 | 8.0 | 0.04 | 1.12 | 0.03 | 90 | 1007.6 |
| 20260506044033 | 46 | 8 | 3.0 | 9.0 | 0.05 | 1.12 | 0.03 | 90 | 1007.6 |
| 20260506043532 | 46 | 6 | 4.0 | 10.0 | 0.06 | 1.12 | 0.03 | 89 | 1007.6 |
| 20260506043039 | 46 | 345 | 3.0 | 10.0 | 0.06 | 1.12 | 0.02 | 90 | 1007.7 |
| 20260506042531 | 46 | 356 | 4.0 | 9.0 | 0.07 | 1.12 | 0.02 | 90 | 1007.7 |
| 20260506042031 | 46 | 8 | 5.0 | 9.0 | 0.07 | 1.11 | 0.01 | 90 | 1007.8 |
| 20260506041534 | 46 | 346 | 4.0 | 8.0 | 0.07 | 1.11 | 0.01 | 90 | 1007.8 |
| 20260506041029 | 47 | 311 | 4.0 | 9.0 | 0.08 | 1.11 | 0.01 | 90 | 1007.8 |
| 20260506040527 | 47 | 356 | 4.0 | 9.0 | 0.09 | 1.11 | 0.01 | 89 | 1007.8 |
| 20260506040026 | 47 | 321 | 3.0 | 9.0 | 0.09 | 1.10 | 0.00 | 89 | 1007.9 |
| 20260506035527 | 47 | 13 | 4.0 | 11.0 | 0.09 | 1.09 | 1.09 | 90 | 1008.0 |
| 20260506035026 | 47 | 339 | 4.0 | 11.0 | 0.10 | 1.09 | 1.09 | 90 | 1008.1 |
| 20260506034527 | 47 | 335 | 2.0 | 7.0 | 0.12 | 1.09 | 1.09 | 90 | 1008.1 |
| 20260506034124 | 47 | 318 | 3.0 | 5.0 | 0.12 | 1.08 | 1.08 | 89 | 1008.1 |
| 20260506033523 | 47 | 309 | 2.0 | 7.0 | 0.13 | 1.07 | 1.07 | 89 | 1008.1 |
| 20260506033022 | 47 | 301 | 3.0 | 7.0 | 0.13 | 1.06 | 1.06 | 89 | 1008.1 |
| 20260506032522 | 47 | 318 | 3.0 | 7.0 | 0.13 | 1.05 | 1.05 | 89 | 1008.1 |
| 20260506032021 | 47 | 13 | 4.0 | 7.0 | 0.13 | 1.04 | 1.04 | 90 | 1008.1 |
| 20260506031521 | 48 | 23 | 2.0 | 5.0 | 0.15 | 1.04 | 1.04 | 90 | 1008.2 |
| 20260506031021 | 48 | 301 | 2.0 | 6.0 | 0.14 | 1.03 | 1.03 | 90 | 1008.3 |
| 20260506030521 | 48 | 41 | 2.0 | 7.0 | 0.15 | 1.02 | 1.02 | 89 | 1008.3 |
| 20260506030022 | 48 | 1 | 2.0 | 6.0 | 0.14 | 1.01 | 1.01 | 89 | 1008.2 |
| 20260506025521 | 48 | 326 | 3.0 | 6.0 | 0.15 | 1.00 | 1.00 | 89 | 1008.2 |
| 20260506025019 | 48 | 330 | 3.0 | 7.0 | 0.15 | 0.99 | 0.99 | 89 | 1008.3 |
| 20260506024536 | 48 | 4 | 3.0 | 7.0 | 0.14 | 0.97 | 0.97 | 89 | 1008.1 |
| 20260506024118 | 48 | 309 | 1.0 | 7.0 | 0.14 | 0.96 | 0.96 | 89 | 1008.0 |
| 20260506023520 | 48 | 15 | 4.0 | 7.0 | 0.13 | 0.94 | 0.94 | 89 | 1007.7 |
| 20260506023016 | 48 | 335 | 2.0 | 5.0 | 0.14 | 0.93 | 0.93 | 89 | 1007.7 |
| 20260506022518 | 48 | 37 | 2.0 | 5.0 | 0.13 | 0.92 | 0.92 | 89 | 1007.8 |
| 20260506022015 | 48 | 326 | 2.0 | 7.0 | 0.12 | 0.91 | 0.91 | 89 | 1007.7 |
| 20260506021515 | 48 | 339 | 3.0 | 7.0 | 0.10 | 0.89 | 0.89 | 89 | 1007.6 |
| 20260506021017 | 48 | 321 | 2.0 | 6.0 | 0.09 | 0.88 | 0.88 | 89 | 1007.6 |
| 20260506020514 | 48 | 1 | 3.0 | 7.0 | 0.09 | 0.87 | 0.87 | 89 | 1007.5 |
| 20260506020014 | 48 | 6 | 3.0 | 7.0 | 0.09 | 0.87 | 0.87 | 89 | 1007.4 |
| 20260506015515 | 48 | 23 | 3.0 | 6.0 | 0.07 | 0.85 | 0.85 | 89 | 1007.4 |
| 20260506015016 | 48 | 4 | 3.0 | 5.0 | 0.07 | 0.84 | 0.84 | 89 | 1007.5 |
| 20260506014514 | 48 | 356 | 2.0 | 6.0 | 0.07 | 0.83 | 0.83 | 89 | 1007.6 |
| 20260506014017 | 48 | 335 | 2.0 | 6.0 | 0.07 | 0.82 | 0.82 | 89 | 1007.6 |
| 20260506013514 | 48 | 27 | 2.0 | 5.0 | 0.09 | 0.81 | 0.81 | 89 | 1007.6 |
| 20260506013015 | 48 | 3 | 3.0 | 5.0 | 0.08 | 0.79 | 0.79 | 89 | 1007.5 |
| 20260506012514 | 48 | 356 | 2.0 | 5.0 | 0.10 | 0.79 | 0.79 | 89 | 1007.4 |
| 20260506012016 | 48 | 4 | 2.0 | 5.0 | 0.10 | 0.79 | 0.79 | 89 | 1007.5 |
| 20260506011513 | 48 | 41 | 1.0 | 4.0 | 0.11 | 0.79 | 0.79 | 89 | 1007.3 |
| 20260506011015 | 48 | 15 | 2.0 | 8.0 | 0.11 | 0.79 | 0.79 | 89 | 1007.3 |
| 20260506010512 | 48 | 326 | 2.0 | 8.0 | 0.10 | 0.78 | 0.78 | 89 | 1007.2 |
| 20260506010012 | 48 | 356 | 2.0 | 6.0 | 0.10 | 0.78 | 0.78 | 89 | 1007.2 |
| 20260506005511 | 48 | 84 | 1.0 | 5.0 | 0.10 | 0.78 | 0.78 | 89 | 1007.1 |
| 20260506005112 | 48 | 27 | 3.0 | 6.0 | 0.09 | 0.77 | 0.77 | 89 | 1007.1 |
| 20260506004510 | 48 | 337 | 3.0 | 6.0 | 0.08 | 0.76 | 0.76 | 89 | 1007.3 |
| 20260506004010 | 48 | 11 | 2.0 | 5.0 | 0.07 | 0.75 | 0.75 | 89 | 1007.1 |
| 20260506003510 | 48 | 16 | 2.0 | 5.0 | 0.04 | 0.72 | 0.72 | 89 | 1007.0 |
| 20260506003010 | 48 | 18 | 2.0 | 4.0 | 0.04 | 0.71 | 0.71 | 89 | 1006.8 |
| 20260506002511 | 48 | 34 | 1.0 | 4.0 | 0.02 | 0.69 | 0.69 | 88 | 1006.8 |
| 20260506002009 | 48 | 8 | 2.0 | 4.0 | 0.02 | 0.69 | 0.69 | 88 | 1006.8 |
| 20260506001509 | 48 | 48 | 1.0 | 4.0 | 0.02 | 0.68 | 0.68 | 88 | 1006.9 |
| 20260506001009 | 48 | 41 | 1.0 | 5.0 | 0.03 | 0.68 | 0.68 | 88 | 1006.9 |
| 20260506000508 | 48 | 15 | 2.0 | 5.0 | 0.04 | 0.68 | 0.68 | 88 | 1006.9 |
| 20260506000008 | 48 | 18 | 1.0 | 5.0 | 0.05 | 0.68 | 0.68 | 88 | 1006.8 |
| 20260505235506 | 48 | 41 | 2.0 | 5.0 | 0.07 | 0.68 | 0.68 | 88 | 1006.7 |
| 20260505235006 | 48 | 348 | 1.0 | 5.0 | 0.11 | 0.68 | 0.68 | 88 | 1006.7 |
| 20260505234506 | 48 | 335 | 2.0 | 7.0 | 0.13 | 0.68 | 0.68 | 88 | 1006.7 |
| 20260505234006 | 48 | 44 | 3.0 | 8.0 | 0.13 | 0.68 | 0.68 | 88 | 1006.7 |
| 20260505233506 | 48 | 6 | 4.0 | 8.0 | 0.13 | 0.68 | 0.68 | 88 | 1006.8 |
| 20260505233106 | 48 | 1 | 4.0 | 8.0 | 0.12 | 0.67 | 0.67 | 88 | 1007.1 |
| 20260505232503 | 48 | 325 | 4.0 | 11.0 | 0.14 | 0.67 | 0.67 | 88 | 1007.1 |
| 20260505232003 | 48 | 10 | 6.0 | 11.0 | 0.15 | 0.67 | 0.67 | 88 | 1007.1 |
| 20260505231502 | 48 | 1 | 4.0 | 9.0 | 0.14 | 0.66 | 0.66 | 88 | 1007.2 |
| 20260505231003 | 48 | 356 | 4.0 | 8.0 | 0.14 | 0.65 | 0.65 | 87 | 1006.9 |
| 20260505230603 | 48 | 335 | 2.0 | 8.0 | 0.16 | 0.64 | 0.64 | 87 | 1007.1 |
| 20260505230059 | 48 | 359 | 3.0 | 7.0 | 0.16 | 0.63 | 0.63 | 87 | 1007.2 |
| 20260505225559 | 49 | 337 | 4.0 | 8.0 | 0.15 | 0.62 | 0.61 | 87 | 1007.3 |
| 20260505225057 | 49 | 291 | 4.0 | 8.0 | 0.13 | 0.59 | 0.57 | 87 | 1007.6 |
| 20260505224557 | 49 | 6 | 4.0 | 12.0 | 0.11 | 0.56 | 0.55 | 87 | 1006.9 |
| 20260505224056 | 49 | 336 | 5.0 | 13.0 | 0.12 | 0.56 | 0.55 | 87 | 1006.9 |
| 20260505223554 | 49 | 1 | 3.0 | 13.0 | 0.14 | 0.56 | 0.55 | 87 | 1006.9 |
| 20260505223103 | 50 | 10 | 7.0 | 12.0 | 0.14 | 0.55 | 0.54 | 86 | 1006.9 |
| 20260505222551 | 50 | 23 | 5.0 | 12.0 | 0.14 | 0.54 | 0.53 | 87 | 1007.0 |
| 20260505222051 | 50 | 20 | 4.0 | 9.0 | 0.14 | 0.53 | 0.52 | 86 | 1006.9 |
| 20260505221557 | 51 | 74 | 3.0 | 10.0 | 0.14 | 0.53 | 0.52 | 86 | 1006.8 |
| 20260505221049 | 51 | 333 | 5.0 | 10.0 | 0.16 | 0.52 | 0.51 | 86 | 1006.8 |
| 20260505220547 | 51 | 356 | 5.0 | 10.0 | 0.19 | 0.49 | 0.48 | 86 | 1006.9 |
| 20260505220051 | 51 | 339 | 3.0 | 9.0 | 0.26 | 0.48 | 0.47 | 86 | 1006.8 |
| 20260505215546 | 51 | 34 | 3.0 | 9.0 | 0.26 | 0.47 | 0.46 | 86 | 1006.7 |
| 20260505215046 | 51 | 344 | 3.0 | 7.0 | 0.31 | 0.46 | 0.45 | 86 | 1006.8 |
| 20260505214603 | 51 | 23 | 3.0 | 7.0 | 0.33 | 0.45 | 0.44 | 85 | 1006.6 |
| 20260505214044 | 52 | 345 | 2.0 | 12.0 | 0.32 | 0.44 | 0.43 | 85 | 1006.8 |
| 20260505213544 | 52 | 356 | 5.0 | 13.0 | 0.30 | 0.41 | 0.40 | 85 | 1006.6 |
| 20260505213041 | 52 | 3 | 3.0 | 15.0 | 0.31 | 0.41 | 0.40 | 85 | 1006.6 |
| 20260505212540 | 53 | 4 | 5.0 | 15.0 | 0.31 | 0.40 | 0.39 | 84 | 1006.6 |
| 20260505212039 | 54 | 20 | 7.0 | 14.0 | 0.31 | 0.39 | 0.38 | 84 | 1006.7 |
| 20260505211537 | 56 | 343 | 8.0 | 14.0 | 0.32 | 0.39 | 0.38 | 84 | 1006.6 |
| 20260505211036 | 57 | 356 | 2.0 | 15.0 | 0.28 | 0.35 | 0.34 | 86 | 1006.6 |
| 20260505210534 | 57 | 264 | 3.0 | 15.0 | 0.24 | 0.30 | 0.28 | 85 | 1006.4 |
| 20260505210036 | 57 | 226 | 3.0 | 9.0 | 0.16 | 0.22 | 0.21 | 85 | 1006.3 |
| 20260505205534 | 57 | 240 | 2.0 | 9.0 | 0.14 | 0.20 | 0.19 | 85 | 1006.2 |
| 20260505205033 | 57 | 250 | 3.0 | 9.0 | 0.10 | 0.15 | 0.14 | 85 | 1006.5 |